Regional Weather Roundup
Issued by NWS

Home | Current Version | Previous Version | Graphics & Text | Print | Product List | Glossary On
Versions: 1 2 3 4 5 6 7 8 9 10 11 12 13 14 15 16 17 18 19 20 21 22 23 24 25 26 27 28 29 30 31 32 33 34 35 36 37 38 39 40 41 42 43 44 45 46 47 48 49 50
353
ASUS43 KLSX 200807
RWRMO

WEATHER SUMMARY FOR MISSOURI
NATIONAL WEATHER SERVICE SPRINGFIELD MO
300 AM CDT FRI OCT 20 2017

NOTE: "FAIR" INDICATES FEW OR NO CLOUDS BELOW 12,000 FEET WITH NO
       SIGNIFICANT WEATHER AND/OR OBSTRUCTIONS TO VISIBILITY.
       CURRENT SKY AND/OR WEATHER CONDITIONS ARE NOT AVAILABLE FOR
       CHILLICOTHE AND FARMINGTON.

MOZ001>031-035>038-043-044-053-054-200900-
...NORTHERN AND WESTERN MISSOURI...

CITY           SKY/WX    TMP DP  RH WIND       PRES   REMARKS
KANSAS CTY INT FAIR      60  52  74 SW16      30.08S
KANSAS C DTWN  FAIR      60  53  77 SW8       30.08S
LEE`S SUMMIT   FAIR      60  53  77 SW12      30.10S
ST JOSEPH      FAIR      54  52  93 S6        30.06F
CHILLICOTHE      N/A     50  49  96 CALM      30.10S
KIRKSVILLE     FAIR      56  51  84 S7        30.11R

$$
MOZ066>068-077>081-088>096-101>105-200900-
...SOUTHWEST MISSOURI...

CITY           SKY/WX    TMP DP  RH WIND       PRES   REMARKS
SPRINGFIELD    FAIR      57  50  77 S9        30.15R
JOPLIN         FAIR      57  52  83 SE8       30.14S
BRANSON        FAIR      55  50  82 CALM      30.18S

$$
MOZ032>034-039>042-045>050-055>058-069>072-200900-
...CENTRAL MISSOURI...

CITY           SKY/WX    TMP DP  RH WIND       PRES   REMARKS
COLUMBIA       FAIR      56  49  77 S6        30.14R
JEFFERSON CITY FAIR      51  48  89 CALM      30.14R
ROLLA          FAIR      60  50  69 S14       30.16S
SEDALIA        FAIR      60  51  72 S12       30.13R
WHITEMAN AFB   CLEAR     52  48  88 SW7       30.08R
WARRENSBURG    FAIR      52  48  87 S5        30.11R
OSAGE BEACH    FAIR      54  49  83 S5        30.16R

$$
MOZ051-052-059>065-200900-
...EAST CENTRAL MISSOURI...

CITY           SKY/WX    TMP DP  RH WIND       PRES   REMARKS
ST LOUIS INTL  FAIR      58  50  75 S3        30.16S
SPIRIT OF STL  FOG       49  49 100 CALM      30.15S VSB 1/2
ST CHARLES     FAIR      50  49  96 E6        30.16R

$$
MOZ072>076-082>087-097>100-106>115-200900-
...SOUTH CENTRAL AND SOUTHEAST MISSOURI...

CITY           SKY/WX    TMP DP  RH WIND       PRES   REMARKS
CAPE GIRARDEAU FAIR      45  43  93 W3        30.20S FOG
FARMINGTON     FAIR      57  50  77 S9        30.19S
POPLAR BLUFF   FAIR      45  45 100 N3        30.20S
WEST PLAINS    FAIR      52  48  86 S3        30.20S

$$



USA.gov is the U.S. government's official web portal to all federal, state and local government web resources and services.